Location: College Park
(38.9810°N, 76.9370°W)
Time: 06:21:10
(UTC-05:00)

OTV 5 (USA 277) - Pass Details

Date: 13 November 2017
Orbit: 404 x 417 km, 43.0° (Epoch: 07 September)

Event Time Altitude Azimuth Distance (km) Brightness Sun altitude
Exits shadow 06:02:02 13° 294° (WNW) 1,269 ? -9.4°
Maximum altitude 06:04:39 38° 1° (N) 627 ? -8.9°
Drops below altitude 10° 06:07:45 10° 72° (ENE) 1,456 ? -8.3°
Sets 06:09:56 0° 81° (E) 2,316 ? -7.9°
